Flag for China Weather past 2 weeks in Taiyuan, Shanxi, China

Now
75 °F

Haze.


Feels Like: 77 °F
Forecast: 65 / 90 °F
Wind: 10 mph from Northeast

Location: Taiyuan Airport

Current Time: Aug 1, 2014 at 2:15:54 AM

Latest Report: Aug 1, 2014 at 1:30 AM


Visibility: 3 mi

Pressure: 29.86 "Hg

Humidity: 69%

Dew point: 64 °F

Location of TaiyuanLocation

Historic Weather in Taiyuan — Graph

°F

Taiyuan temperature yesterday

Maximum temperature yesterday: 88 °F (at 2:30 PM)
Minimum temperature yesterday: 68 °F (at 6:00 AM)
Average temperature yesterday: 78 °F

Past Weeks' High & Low Weather Summary

 TemperatureHumidityPressure
High93 °F (Jul 17, 4:00 PM)94% (Jul 19, 7:30 PM)29.98 "Hg (Jul 19, 7:30 PM)
Low59 °F (Jul 25, 4:00 AM)22% (Jul 28, 3:00 PM)29.65 "Hg (Jul 28, 6:00 PM)
Average77 °F62%29.82 "Hg
* Reported Jul 17 1:00 AM — Aug 1 1:00 AM, Taiyuan, Weather by CustomWeather, © 2014

Note: Actual official high and low records may vary slightly from our data, if they occured in-between our weather recording intervals... More about our weather records

Advertising

Taiyuan weather history for previous 24 hours

 ConditionsComfort  
Time TempWeatherWind HumidityBarometerVisibility
1:00 AM
Aug 1
75 °FHaze.10 mph69%29.86 "Hg3 mi
12:30 AM75 °FHaze.10 mph74%29.83 "Hg3 mi
12:00 AM75 °FHaze.13 mph69%29.83 "Hg3 mi
11:30 PM
Jul 31
75 °FHaze.10 mph69%29.83 "Hg3 mi
11:00 PM77 °FClear.13 mph65%29.83 "Hg4 mi
10:30 PM77 °FClear.13 mph65%29.83 "Hg4 mi
10:00 PM77 °FClear.13 mph65%29.80 "Hg4 mi
9:30 PM79 °FClear.13 mph58%29.80 "Hg10 mi
9:00 PM79 °FClear.10 mph54%29.80 "Hg10 mi
8:30 PM81 °FClear.10 mph51%29.77 "Hg10 mi
8:00 PM82 °FClear.8 mph48%29.77 "Hg10 mi
7:30 PM84 °FSunny.8 mph43%29.74 "Hg10 mi
7:00 PM84 °FSunny.8 mph43%29.74 "Hg10 mi
6:30 PM86 °FSunny.3 mph46%29.74 "Hg10 mi
6:00 PM88 °FSunny.1 mph43%29.74 "Hg10 mi
5:30 PM88 °FSunny.3 mph43%29.74 "Hg10 mi
5:00 PM88 °FPassing clouds.3 mph43%29.74 "HgN/A
4:30 PM88 °FPassing clouds.3 mph43%29.77 "HgN/A
4:00 PM88 °FPassing clouds.3 mph40%29.77 "HgN/A
3:30 PM88 °FPassing clouds.6 mph40%29.77 "HgN/A
3:00 PM88 °FPassing clouds.6 mph40%29.80 "HgN/A
2:30 PM88 °FPassing clouds.3 mph40%29.80 "HgN/A
2:00 PM86 °FPassing clouds.6 mph46%29.80 "HgN/A
1:30 PM86 °FSunny.3 mph46%29.83 "Hg10 mi
1:00 PM86 °FSunny.3 mph46%29.83 "Hg10 mi
12:30 PM84 °FSunny.1 mph48%29.83 "Hg10 mi
12:00 PM82 °FSunny.3 mph51%29.83 "Hg10 mi
11:30 AM82 °FClear.3 mph51%29.83 "Hg4 mi
11:00 AM81 °FClear.3 mph58%29.86 "Hg4 mi
10:30 AM81 °FClear.6 mph58%29.86 "Hg4 mi
10:00 AM79 °FHaze.6 mph65%29.86 "Hg3 mi
9:30 AM75 °FHaze.10 mph69%29.86 "Hg3 mi
9:00 AM75 °FHaze.10 mph69%29.86 "Hg2 mi
8:30 AM73 °FHaze.6 mph74%29.89 "Hg2 mi
8:00 AM72 °FHaze.8 mph73%29.89 "Hg2 mi
7:30 AM70 °FHaze.10 mph78%29.89 "Hg2 mi
7:00 AM70 °FHaze.8 mph78%29.89 "Hg2 mi
6:30 AM68 °FHaze.8 mph83%29.86 "Hg2 mi
6:00 AM68 °FHaze.6 mph83%29.86 "Hg2 mi
5:30 AM70 °FHaze.10 mph78%29.86 "Hg2 mi
5:00 AM70 °FHaze.10 mph78%29.86 "Hg2 mi
4:30 AM70 °FHaze.6 mph78%29.86 "Hg2 mi
4:00 AM70 °FHaze.6 mph78%29.86 "Hg2 mi
3:30 AM70 °FHaze.3 mph78%29.86 "Hg2 mi
3:00 AM72 °FHaze.6 mph73%29.86 "Hg2 mi
2:30 AM72 °FHaze.8 mph78%29.86 "Hg2 mi
Weather by CustomWeather, © 2014

See weather overviewHow to use our weather pages